Location: Eisingen in Unterfranken
(49.7591°N, 9.8347°E)
Time: 08:04:57
(UTC+01:00)

Envisat - Pass Details

Date: 01 December 2022
Orbit: 763 x 765 km, 98.2° (Epoch: 04 February)

Event Time Altitude Azimuth Distance (km) Brightness Sun altitude
Rises 06:33:03 0° 1° (N) 3,247 6.1 -12.8°
Reaches altitude 10° 06:36:19 10° 340° (NNW) 2,315 5.1 -12.3°
Enters shadow 06:39:01 15° 307° (NW) 1,986 4.5 -11.9°
